• In Austria
  • List of Countries
  • For 7 days
  • Water Temperature
  • Satellite Maps
  • Weather Map
  • News
  • Weather Widgets
  • user-avatar
    Login

    Hourly Weather Encamp

    Today, 26 September, Wednesday

    Time Temperature Precipitation Wind Pressure Humidity
    00:00 +8°C° 0 mm 1 mps 632 mmHg 89%
    01:00 +7°C° 0 mm 2 mps 632 mmHg 88%
    02:00 +7°C° 0 mm 2 mps 632 mmHg 87%
    03:00 +7°C° 0 mm 2 mps 632 mmHg 86%
    04:00 +7°C° 0 mm 2 mps 632 mmHg 85%
    05:00 +7°C° 0 mm 2 mps 632 mmHg 84%
    06:00 +6°C° 0 mm 2 mps 632 mmHg 83%
    07:00 +9°C° 0 mm 2 mps 633 mmHg 75%
    08:00 +12°C° 0 mm 2 mps 635 mmHg 68%
    09:00 +13°C° 0 mm 3 mps 636 mmHg 60%
    10:00 +14°C° 0 mm 3 mps 636 mmHg 56%
    11:00 +17°C° 0 mm 3 mps 636 mmHg 51%
    12:00 +18°C° 0 mm 3 mps 637 mmHg 47%
    13:00 +18°C° 0 mm 3 mps 637 mmHg 47%
    14:00 +18°C° 0 mm 3 mps 637 mmHg 47%
    15:00 +18°C° 0 mm 3 mps 636 mmHg 47%
    16:00 +14°C° 0 mm 3 mps 636 mmHg 56%
    17:00 +13°C° 0 mm 2 mps 635 mmHg 65%
    18:00 +10°C° 0 mm 2 mps 634 mmHg 73%
    19:00 +9°C° 0 mm 2 mps 634 mmHg 76%
    20:00 +9°C° 0 mm 2 mps 634 mmHg 78%
    21:00 +9°C° 0 mm 1 mps 634 mmHg 81%
    22:00 +9°C° 0 mm 1 mps 634 mmHg 81%
    23:00 +8°C° 0 mm 1 mps 634 mmHg 81%

    Tomorrow, 27 September, Thursday

    Time Temperature Precipitation Wind Pressure Humidity
    00:00 +8°C° 0 mm 1 mps 633 mmHg 81%
    01:00 +8°C° 0 mm 1 mps 633 mmHg 79%
    02:00 +8°C° 0 mm 1 mps 633 mmHg 78%
    03:00 +8°C° 0 mm 1 mps 633 mmHg 77%
    04:00 +8°C° 0 mm 1 mps 632 mmHg 73%
    05:00 +7°C° 0 mm 1 mps 632 mmHg 69%
    06:00 +7°C° 0 mm 1 mps 632 mmHg 65%
    07:00 +10°C° 0 mm 1 mps 634 mmHg 56%
    08:00 +13°C° 0 mm 1 mps 635 mmHg 48%
    09:00 +16°C° 0 mm 1 mps 636 mmHg 39%
    10:00 +19°C° 0 mm 1 mps 636 mmHg 37%
    11:00 +20°C° 0 mm 1 mps 637 mmHg 35%
    12:00 +20°C° 0 mm 2 mps 637 mmHg 33%
    13:00 +20°C° 0 mm 2 mps 636 mmHg 34%
    14:00 +20°C° 0 mm 2 mps 636 mmHg 36%
    15:00 +21°C° 0 mm 1 mps 635 mmHg 37%
    16:00 +18°C° 0 mm 1 mps 634 mmHg 47%
    17:00 +15°C° 0 mm 1 mps 633 mmHg 57%
    18:00 +12°C° 0 mm 1 mps 632 mmHg 67%
    19:00 +12°C° 0 mm 1 mps 632 mmHg 69%
    20:00 +11°C° 0 mm 1 mps 631 mmHg 71%
    21:00 +11°C° 0 mm 1 mps 631 mmHg 72%
    22:00 +11°C° 0 mm 1 mps 631 mmHg 72%
    23:00 +10°C° 0 mm 1 mps 630 mmHg 71%

    Day after tomorrow, 28 September, Friday

    Time Temperature Precipitation Wind Pressure Humidity
    00:00 +9°C° 0 mm 2 mps 630 mmHg 70%
    01:00 +9°C° 0 mm 2 mps 630 mmHg 67%
    02:00 +9°C° 0 mm 2 mps 629 mmHg 64%
    03:00 +9°C° 0 mm 2 mps 629 mmHg 60%
    04:00 +9°C° 0 mm 2 mps 629 mmHg 61%
    05:00 +8°C° 0 mm 2 mps 628 mmHg 61%
    06:00 +8°C° 0 mm 2 mps 628 mmHg 61%
    07:00 +12°C° 0 mm 2 mps 629 mmHg 55%
    08:00 +15°C° 0 mm 1 mps 630 mmHg 49%
    09:00 +19°C° 0 mm 1 mps 631 mmHg 44%
    10:00 +19°C° 0 mm 2 mps 631 mmHg 41%
    11:00 +20°C° 0 mm 2 mps 631 mmHg 37%
    12:00 +21°C° 0 mm 2 mps 632 mmHg 34%
    13:00 +21°C° 0 mm 2 mps 631 mmHg 35%
    14:00 +20°C° 0 mm 2 mps 630 mmHg 36%
    15:00 +20°C° 0 mm 2 mps 630 mmHg 37%
    16:00 +18°C° 0 mm 2 mps 629 mmHg 45%
    17:00 +16°C° 0 mm 2 mps 628 mmHg 53%
    18:00 +13°C° 0 mm 2 mps 627 mmHg 61%
    19:00 +13°C° 0 mm 2 mps 627 mmHg 63%
    20:00 +12°C° 0 mm 2 mps 627 mmHg 65%
    21:00 +10°C° 0 mm 2 mps 627 mmHg 67%
    22:00 +10°C° 0 mm 2 mps 627 mmHg 67%
    23:00 +10°C° 0 mm 2 mps 627 mmHg 68%

    29 September, Saturday

    Time Temperature Precipitation Wind Pressure Humidity
    00:00 +9°C° 0 mm 2 mps 626 mmHg 69%
    01:00 +9°C° 0 mm 2 mps 626 mmHg 70%
    02:00 +9°C° 0 mm 2 mps 626 mmHg 72%
    03:00 +9°C° 0 mm 2 mps 626 mmHg 73%
    04:00 +9°C° 0 mm 2 mps 626 mmHg 74%
    05:00 +9°C° 0 mm 2 mps 626 mmHg 75%
    06:00 +9°C° 0 mm 2 mps 626 mmHg 77%
    07:00 +12°C° 0 mm 2 mps 627 mmHg 68%
    08:00 +15°C° 0 mm 1 mps 628 mmHg 59%
    09:00 +18°C° 0 mm 1 mps 629 mmHg 50%
    10:00 +19°C° 0 mm 1 mps 629 mmHg 47%
    11:00 +19°C° 0 mm 2 mps 629 mmHg 44%
    12:00 +20°C° 0 mm 2 mps 630 mmHg 41%
    13:00 +20°C° 0.1 mm 2 mps 629 mmHg 43%
    14:00 +19°C° 0.1 mm 2 mps 628 mmHg 45%
    15:00 +19°C° 0.1 mm 2 mps 628 mmHg 47%
    16:00 +18°C° 0.1 mm 1 mps 627 mmHg 54%
    17:00 +15°C° 0.1 mm 1 mps 627 mmHg 61%
    18:00 +14°C° 0.1 mm 1 mps 626 mmHg 68%
    19:00 +13°C° 0 mm 1 mps 626 mmHg 71%
    20:00 +12°C° 0 mm 1 mps 626 mmHg 73%
    21:00 +11°C° 0 mm 1 mps 626 mmHg 76%
    22:00 +11°C° 0 mm 1 mps 626 mmHg 77%
    23:00 +11°C° 0 mm 1 mps 626 mmHg 78%

    30 September, Sunday

    Time Temperature Precipitation Wind Pressure Humidity
    00:00 +11°C° 0 mm 1 mps 626 mmHg 78%
    01:00 +10°C° 0 mm 1 mps 626 mmHg 79%
    02:00 +10°C° 0 mm 1 mps 625 mmHg 80%
    03:00 +10°C° 0 mm 1 mps 625 mmHg 81%
    04:00 +10°C° 0 mm 1 mps 625 mmHg 82%
    05:00 +10°C° 0 mm 1 mps 625 mmHg 82%
    06:00 +9°C° 0 mm 1 mps 625 mmHg 82%
    07:00 +12°C° 0 mm 1 mps 626 mmHg 74%
    08:00 +14°C° 0 mm 1 mps 627 mmHg 66%
    09:00 +16°C° 0 mm 1 mps 628 mmHg 58%
    10:00 +18°C° 0.1 mm 1 mps 628 mmHg 55%
    11:00 +18°C° 0.1 mm 2 mps 628 mmHg 53%
    12:00 +18°C° 0.1 mm 2 mps 628 mmHg 51%
    13:00 +18°C° 0.2 mm 2 mps 628 mmHg 52%
    14:00 +18°C° 0.2 mm 2 mps 628 mmHg 53%
    15:00 +19°C° 0.2 mm 1 mps 627 mmHg 54%
    16:00 +16°C° 0.2 mm 1 mps 627 mmHg 59%
    17:00 +15°C° 0.2 mm 1 mps 626 mmHg 65%
    18:00 +13°C° 0.2 mm 1 mps 626 mmHg 70%
    19:00 +12°C° 0 mm 1 mps 626 mmHg 72%
    20:00 +11°C° 0 mm 1 mps 625 mmHg 75%
    21:00 +11°C° 0 mm 1 mps 625 mmHg 78%
    22:00 +10°C° 0 mm 1 mps 625 mmHg 79%
    23:00 +10°C° 0 mm 1 mps 625 mmHg 79%

    1 October, Monday

    Time Temperature Precipitation Wind Pressure Humidity
    00:00 +10°C° 0 mm 1 mps 624 mmHg 79%
    01:00 +9°C° 0 mm 1 mps 624 mmHg 80%
    02:00 +9°C° 0 mm 1 mps 624 mmHg 80%
    03:00 +9°C° 0 mm 1 mps 624 mmHg 80%
    04:00 +9°C° 0 mm 1 mps 624 mmHg 81%
    05:00 +8°C° 0 mm 1 mps 624 mmHg 82%
    06:00 +7°C° 0 mm 2 mps 624 mmHg 84%
    07:00 +9°C° 0 mm 2 mps 625 mmHg 75%
    08:00 +12°C° 0 mm 2 mps 626 mmHg 66%
    09:00 +14°C° 0 mm 2 mps 627 mmHg 57%
    10:00 +15°C° 0 mm 2 mps 627 mmHg 51%
    11:00 +16°C° 0 mm 3 mps 627 mmHg 45%
    12:00 +17°C° 0 mm 3 mps 627 mmHg 40%
    13:00 +16°C° 0.1 mm 3 mps 627 mmHg 39%
    14:00 +15°C° 0.1 mm 4 mps 627 mmHg 37%
    15:00 +14°C° 0.1 mm 4 mps 626 mmHg 36%
    16:00 +12°C° 0.3 mm 4 mps 626 mmHg 39%
    17:00 +10°C° 0.3 mm 3 mps 625 mmHg 42%
    18:00 +8°C° 0.3 mm 3 mps 624 mmHg 45%
    19:00 +5°C° 0 mm 3 mps 624 mmHg 46%
    20:00 +4°C° 0 mm 3 mps 624 mmHg 48%
    21:00 +3°C° 0 mm 3 mps 624 mmHg 50%
    22:00 +3°C° 0 mm 3 mps 624 mmHg 51%
    23:00 +1°C° 0 mm 4 mps 624 mmHg 52%
    Show more